Location: Wyoming Infrared Observatory
(41.0971°N, 105.9765°W)
Time: 06:33:17
(UTC-07:00)

Amateur Radio Satellites - All Passes

Search period start: 22 December 2014 06:03
Search period end: 23 December 2014 06:03
Location: Wyoming Infrared Observatory, 41.0971°N, 105.9765°W

Satellite Date Start Highest point End Downlink Frequencies (MHz)
Time Altitude Azimuth
CUBESAT XI-V 22 Dec 06:19:09 06:23:46 60° 260° (W) 06:28:23 437.345
CUTE-I 22 Dec 06:29:59 06:35:20 81° 104° (ESE) 06:40:39 437.470
AO-7 22 Dec 06:32:10 06:38:14 23° 308° (NW) 06:44:18 29.400- 29.500
PRISM 22 Dec 06:36:38 06:39:19 16° 267° (W) 06:42:01 437.425
GONETS M04 22 Dec 06:53:17 07:01:08 35° 289° (WNW) 07:09:03
JAS-2 22 Dec 06:54:38 06:57:51 16° 302° (WNW) 07:00:57 435.910
VERMONT LUNAR 22 Dec 06:57:32 07:00:44 33° 203° (SSW) 07:03:57 437.305
STRAND 1 22 Dec 07:12:00 07:16:02 23° 266° (W) 07:20:05 437.568
SO-50 22 Dec 07:12:08 07:13:26 11° 254° (WSW) 07:14:44 436.795
PHONESAT 2.4 22 Dec 07:19:46 07:23:07 36° 202° (SSW) 07:26:28 2401.200-2431.200
BRITE-PL 22 Dec 07:33:27 07:34:27 11° 90° (E) 07:35:27 437.365/2234.400
Cubesat XI-IV 22 Dec 07:37:58 07:42:17 26° 295° (WNW) 07:46:36 437.490
CANX-2 22 Dec 07:42:43 07:42:59 10° 89° (E) 07:43:15 2200.000
GOMX 1 22 Dec 07:50:22 07:52:07 12° 90° (E) 07:53:54 467.674
SEEDS 22 Dec 08:05:22 08:07:52 15° 91° (E) 08:10:21 437.485
DOVE 4 22 Dec 08:07:00 08:09:16 13° 91° (E) 08:11:34 437.250
HO-68 22 Dec 08:08:43 08:14:51 30° 95° (E) 08:20:55 435.675
CUTE 1.7 + AOD 2 22 Dec 08:10:38 08:13:52 20° 93° (E) 08:17:04 437.475
CUTE-I 22 Dec 08:12:01 08:14:41 14° 301° (WNW) 08:17:21 437.470
DANDE 22 Dec 08:24:27 08:26:19 13° 80° (E) 08:28:26 436.750
TIGRISAT 22 Dec 08:41:59 08:44:21 14° 63° (ENE) 08:46:45 435.000
MaSat-1 22 Dec 08:42:51 08:44:53 28° 299° (WNW) 08:46:52 437.345
DUCHIFAT 1 22 Dec 08:50:46 08:51:38 11° 62° (ENE) 08:52:31 145.980
Oscar 11 22 Dec 08:53:22 08:56:30 19° 93° (E) 08:59:37 145.826/435.025
AAUSAT CUBESAT 2 22 Dec 08:54:58 08:58:58 39° 98° (E) 09:02:55 437.432
UKube-1 22 Dec 09:03:22 09:06:13 17° 93° (E) 09:09:03 .
QB50P2 22 Dec 09:03:55 09:06:25 16° 64° (ENE) 09:08:56 145.880/145.840
CUSAT 1 22 Dec 09:04:11 09:07:49 50° 93° (E) 09:12:41 437.405
BRITE-PL 22 Dec 09:08:35 09:13:22 83° 284° (WNW) 09:18:32 437.365/2234.400
UNISAT 6 22 Dec 09:10:30 09:14:15 28° 68° (ENE) 09:18:07 437.425
YUBILEINY 22 Dec 09:11:34 09:17:48 21° 64° (ENE) 09:24:00 435.215
POLYITAN 1 22 Dec 09:12:51 09:15:51 19° 66° (ENE) 09:18:52 437.675
NANOSAT C BR1 22 Dec 09:13:24 09:16:23 19° 66° (ENE) 09:19:23 145.865
CANX-2 22 Dec 09:15:04 09:19:23 69° 285° (WNW) 09:23:39 2200.000
CUBEBUG 2 22 Dec 09:25:24 09:29:30 30° 96° (E) 09:33:38 437.445
GOMX 1 22 Dec 09:25:49 09:30:38 77° 284° (WNW) 09:35:47 467.674
QB50P1 22 Dec 09:27:30 09:31:02 27° 69° (ENE) 09:34:36 145.935-145.965
ZACube-1 22 Dec 09:28:14 09:31:50 23° 94° (E) 09:35:26 437.345
COMPASS 1 22 Dec 09:31:32 09:35:47 68° 285° (WNW) 09:39:59 437.405
DELFI C3 22 Dec 09:36:43 09:40:43 47° 99° (E) 09:44:40 145.870
VELOX 1 22 Dec 09:37:34 09:39:54 14° 92° (E) 09:42:13 145.980
50 SAT 22 Dec 09:39:03 09:40:38 12° 91° (E) 09:42:13 437.505
SEEDS 22 Dec 09:39:49 09:43:56 46° 287° (WNW) 09:48:00 437.485
RS-15 22 Dec 09:40:36 09:47:50 21° 100° (E) 09:55:01 29.354- 29.394
ANTELSAT 22 Dec 09:41:55 09:46:15 62° 74° (ENE) 09:50:42 437.575/2403.000
DOVE 4 22 Dec 09:42:35 09:47:23 70° 285° (WNW) 09:52:27 437.250
CUTE 1.7 + AOD 2 22 Dec 09:45:57 09:49:52 34° 289° (WNW) 09:53:45 437.475
FUNcube-1 22 Dec 09:53:50 09:58:10 41° 98° (E) 10:02:30 145.935
CINEMA 3 22 Dec 09:54:06 09:58:54 87° 283° (WNW) 10:03:52 145.822/145.860
POPSAT HIP 1 22 Dec 09:55:47 09:59:53 55° 74° (ENE) 10:04:01 437.405
HO-68 22 Dec 09:55:55 10:02:47 52° 293° (WNW) 10:09:38 435.675
O/OREOS (USA 219) 22 Dec 09:56:27 10:00:57 64° 66° (ENE) 10:05:26 437.305
UWE-3 22 Dec 09:59:17 10:03:50 57° 100° (E) 10:08:27 435.000/436.395/437.385
DANDE 22 Dec 10:05:29 10:08:57 39° 288° (WNW) 10:13:33 436.750
DX 1 22 Dec 10:09:16 10:13:38 86° 284° (WNW) 10:17:59 434.975-435.025
BUGSAT 1 22 Dec 10:12:33 10:16:37 69° 75° (ENE) 10:20:40 437.445
HUMSAT D 22 Dec 10:14:01 10:18:07 39° 98° (E) 10:22:11 437.325/437.525
TIGRISAT 22 Dec 10:16:19 10:20:35 56° 260° (W) 10:25:00 435.000
AISAT 22 Dec 10:20:21 10:24:35 42° 99° (E) 10:28:47 437.250
CUBEBUG 1 22 Dec 10:20:34 10:23:09 15° 92° (E) 10:25:43 437.445
DUCHIFAT 1 22 Dec 10:22:43 10:26:53 72° 258° (WSW) 10:31:06 145.980
Oscar 11 22 Dec 10:28:45 10:32:47 37° 289° (WNW) 10:36:48 145.826/435.025
AAUSAT CUBESAT 2 22 Dec 10:31:26 10:34:19 18° 294° (WNW) 10:37:12 437.432
QB50P2 22 Dec 10:37:53 10:41:57 46° 261° (W) 10:46:02 145.880/145.840
UKube-1 22 Dec 10:38:28 10:42:33 42° 289° (WNW) 10:46:37 .
UNISAT 6 22 Dec 10:47:20 10:51:00 26° 265° (W) 10:54:46 437.425
POLYITAN 1 22 Dec 10:47:39 10:51:32 36° 262° (W) 10:55:27 437.675
NANOSAT C BR1 22 Dec 10:48:08 10:52:00 36° 262° (W) 10:55:55 145.865
CUSAT 1 22 Dec 10:49:28 10:51:42 14° 301° (WNW) 10:54:16 437.405
CUBEBUG 2 22 Dec 11:02:07 11:06:06 29° 291° (WNW) 11:10:08 437.445
QB50P1 22 Dec 11:03:24 11:06:52 25° 265° (W) 11:10:22 145.935-145.965
ZACube-1 22 Dec 11:04:06 11:08:14 35° 290° (WNW) 11:12:25 437.345
YUBILEINY 22 Dec 11:06:58 11:15:41 83° 265° (W) 11:24:23 435.215
TISAT 1 22 Dec 11:11:29 11:13:32 13° 91° (E) 11:15:35 437.305
50 SAT 22 Dec 11:12:06 11:16:10 55° 286° (WNW) 11:20:14 437.505
VELOX 1 22 Dec 11:12:28 11:16:47 53° 287° (WNW) 11:21:05 145.980
DELFI C3 22 Dec 11:13:17 11:15:34 15° 295° (WNW) 11:17:52 145.870
SPROUT 22 Dec 11:20:38 11:23:22 16° 92° (E) 11:26:05 437.525
ANTELSAT 22 Dec 11:21:50 11:23:30 12° 271° (W) 11:25:11 437.575/2403.000
ESTCUBE 1 22 Dec 11:21:56 11:26:27 79° 103° (ESE) 11:30:56 437.505/2401.250
FUNcube-1 22 Dec 11:30:55 11:34:13 20° 294° (WNW) 11:37:32 145.935
POPSAT HIP 1 22 Dec 11:34:28 11:36:07 12° 269° (W) 11:37:47 437.405
CINEMA 3 22 Dec 11:34:36 11:35:24 10° 299° (WNW) 11:36:12 145.822/145.860
UWE-3 22 Dec 11:37:13 11:39:55 16° 296° (WNW) 11:42:39 435.000/436.395/437.385
O/OREOS (USA 219) 22 Dec 11:38:04 11:39:45 12° 262° (W) 11:41:26 437.305
ISS 22 Dec 11:45:23 11:47:15 14° 130° (SE) 11:49:07 145.825
RS-15 22 Dec 11:47:32 11:58:30 87° 120° (ESE) 12:09:31 29.354- 29.394
BEESAT 3 22 Dec 11:49:00 11:51:52 19° 111° (ESE) 11:54:47 437.485
HUMSAT D 22 Dec 11:50:33 11:53:37 19° 294° (WNW) 11:56:42 437.325/437.525
CUBEBUG 1 22 Dec 11:55:36 11:59:45 46° 288° (WNW) 12:03:53 437.445
AISAT 22 Dec 11:57:48 12:00:53 19° 295° (WNW) 12:03:59 437.250
Oscar 19 22 Dec 12:08:08 12:12:53 39° 69° (ENE) 12:17:40 437.125/150
AIST 2 22 Dec 12:08:33 12:10:21 13° 108° (ESE) 12:12:11 435.215
PCSat 22 Dec 12:11:23 12:15:13 20° 106° (ESE) 12:19:04 145.827
ITAMSAT 1 22 Dec 12:29:11 12:33:16 24° 65° (ENE) 12:37:21 435.822/435.867
BEESAT 2 22 Dec 12:29:29 12:33:25 45° 117° (ESE) 12:37:24 435.950
Gurwin Techsat 1B 22 Dec 12:36:45 12:40:15 18° 62° (ENE) 12:43:45 435.225
TISAT 1 22 Dec 12:45:32 12:49:39 51° 287° (WNW) 12:53:45 437.305
SWISSCUBE 22 Dec 12:50:55 12:54:57 27° 96° (E) 12:58:58 437.505
ITUPSAT 1 22 Dec 12:52:18 12:56:15 25° 95° (E) 13:00:10 437.325
SPROUT 22 Dec 12:55:34 12:59:39 43° 288° (WNW) 13:03:43 437.525
ESTCUBE 1 22 Dec 13:01:28 13:02:40 11° 299° (WNW) 13:03:52 437.505/2401.250
YUBILEINY 22 Dec 13:06:31 13:11:02 16° 284° (WNW) 13:15:34 435.215
BEESAT 22 Dec 13:15:07 13:19:41 44° 99° (E) 13:24:12 436.000
ISS 22 Dec 13:20:11 13:23:28 65° 326° (NNW) 13:26:45 145.825
BEESAT 3 22 Dec 13:25:51 13:29:45 41° 308° (NW) 13:33:42 437.485
M-CUBED/EXP-1 PRIME 22 Dec 13:28:58 13:31:50 18° 96° (E) 13:34:33 437.505
AIST 2 22 Dec 13:44:13 13:48:25 64° 304° (NW) 13:52:42 435.215
AO-7 22 Dec 13:46:21 13:52:55 27° 55° (NE) 13:59:31 29.400- 29.500
KKS-1 22 Dec 13:46:25 13:49:35 19° 93° (E) 13:52:44 437.445
Oscar 19 22 Dec 13:48:08 13:52:19 25° 266° (W) 13:56:32 437.125/150
PCSat 22 Dec 13:52:51 13:58:10 57° 303° (WNW) 14:03:31 145.827
RS-15 22 Dec 14:02:53 14:12:21 32° 327° (NNW) 14:21:59 29.354- 29.394
ITAMSAT 1 22 Dec 14:07:36 14:12:29 42° 261° (W) 14:17:25 435.822/435.867
BEESAT 2 22 Dec 14:08:47 14:11:53 20° 315° (NW) 14:15:02 435.950
Gurwin Techsat 1B 22 Dec 14:14:27 14:19:42 62° 259° (W) 14:24:58 435.225
HORYU 2 22 Dec 14:15:27 14:19:48 55° 73° (ENE) 14:24:13 437.375
SWISSCUBE 22 Dec 14:28:36 14:32:47 32° 292° (WNW) 14:36:58 437.505
ITUPSAT 1 22 Dec 14:29:53 14:34:10 34° 291° (WNW) 14:38:25 437.325
AUBIESAT-1 22 Dec 14:35:35 14:39:52 85° 289° (WNW) 14:43:45 437.475
BEESAT 22 Dec 14:53:44 14:57:12 20° 296° (WNW) 15:00:39 436.000
ISS 22 Dec 14:58:15 15:00:32 17° 345° (NNW) 15:02:50 145.825
AIST 1 22 Dec 14:59:19 15:01:01 12° 84° (E) 15:02:42
M-CUBED/EXP-1 PRIME 22 Dec 15:03:03 15:07:04 38° 295° (WNW) 15:10:44 437.505
GONETS M04 22 Dec 15:06:30 15:13:28 26° 66° (ENE) 15:20:21
STARS 22 Dec 15:13:37 15:18:03 74° 285° (WNW) 15:22:29 437.465
JAS-2 22 Dec 15:18:27 15:25:05 35° 67° (ENE) 15:31:10 435.910
KKS-1 22 Dec 15:22:11 15:26:22 40° 289° (WNW) 15:30:33 437.445
AIST 2 22 Dec 15:27:19 15:27:54 10° 324° (NW) 15:28:30 435.215
AO-7 22 Dec 15:36:38 15:44:56 74° 254° (WSW) 15:53:20 29.400- 29.500
PCSat 22 Dec 15:41:05 15:42:48 11° 324° (NW) 15:44:31 145.827
HORYU 2 22 Dec 15:54:29 15:56:48 14° 269° (W) 15:59:08 437.375
CUTE-I 22 Dec 16:14:17 16:17:44 18° 61° (ENE) 16:21:11 437.470
RS-15 22 Dec 16:22:01 16:29:37 20° 2° (N) 16:37:22 29.354- 29.394
AIST 1 22 Dec 16:33:50 16:38:08 56° 280° (W) 16:42:26
ISS 22 Dec 16:36:21 16:38:07 14° 6° (N) 16:39:54 145.825
MOZHAYETS 4 22 Dec 16:46:45 16:51:17 53° 100° (E) 16:55:45
GONETS M04 22 Dec 17:02:23 17:11:05 71° 267° (W) 17:19:41
JAS-2 22 Dec 17:02:38 17:09:55 48° 261° (W) 17:16:36 435.910
Cubesat XI-IV 22 Dec 17:19:21 17:24:37 68° 73° (ENE) 17:29:55 437.490
AO-7 22 Dec 17:35:30 17:39:02 13° 272° (W) 17:42:36 29.400- 29.500
STRAND 1 22 Dec 17:44:13 17:46:41 14° 90° (E) 17:49:09 437.568
CUTE-I 22 Dec 17:52:00 17:57:16 63° 258° (WSW) 18:02:33 437.470
CUSAT 1 22 Dec 18:01:31 18:04:29 12° 58° (ENE) 18:07:33 437.405
MaSat-1 22 Dec 18:12:17 18:14:19 23° 249° (WSW) 18:16:26 437.345
ISS 22 Dec 18:12:33 18:15:30 29° 25° (NNE) 18:18:26 145.825
CUBESAT XI-V 22 Dec 18:16:21 18:20:31 33° 97° (E) 18:24:40 437.345
PRISM 22 Dec 18:18:04 18:22:13 72° 102° (ESE) 18:26:19 437.425
MOZHAYETS 4 22 Dec 18:25:12 18:28:03 16° 296° (WNW) 18:30:54
RS-15 22 Dec 18:36:36 18:46:39 36° 36° (NE) 18:57:02 29.354- 29.394
HO-68 22 Dec 18:38:10 18:43:37 24° 58° (ENE) 18:49:03 435.675
SEEDS 22 Dec 18:59:13 19:00:42 12° 62° (ENE) 19:02:12 437.485
GOMX 1 22 Dec 19:00:54 19:01:23 10° 61° (ENE) 19:01:53 467.674
DANDE 22 Dec 19:01:48 19:08:28 29° 69° (ENE) 19:15:41 436.750
Cubesat XI-IV 22 Dec 19:02:14 19:05:11 15° 269° (W) 19:08:09 437.490
GONETS M04 22 Dec 19:03:12 19:06:09 12° 287° (WNW) 19:09:05
CUTE 1.7 + AOD 2 22 Dec 19:04:36 19:07:09 16° 65° (ENE) 19:09:43 437.475
DOVE 4 22 Dec 19:14:52 19:15:55 11° 61° (ENE) 19:16:59 437.250
STRAND 1 22 Dec 19:21:17 19:26:21 70° 286° (WNW) 19:31:24 437.568
CUSAT 1 22 Dec 19:41:13 19:49:01 57° 76° (ENE) 19:57:22 437.405
SO-50 22 Dec 19:43:56 19:47:48 29° 113° (ESE) 19:51:47 436.795
AAUSAT CUBESAT 2 22 Dec 19:46:29 19:50:04 27° 69° (ENE) 19:53:40 437.432
Oscar 11 22 Dec 19:48:59 19:51:36 16° 64° (ENE) 19:54:15 145.826/435.025
ISS 22 Dec 19:49:03 19:52:07 37° 223° (SW) 19:55:09 145.825
CUBESAT XI-V 22 Dec 19:54:06 19:57:47 24° 293° (WNW) 20:01:28 437.345
PRISM 22 Dec 19:56:22 19:57:08 10° 299° (WNW) 19:57:54 437.425
UKube-1 22 Dec 19:59:08 20:01:44 16° 64° (ENE) 20:04:21 .
CANX-2 22 Dec 20:07:51 20:12:07 83° 76° (ENE) 20:16:26 2200.000
BEESAT 3 22 Dec 20:08:26 20:10:57 15° 42° (NE) 20:13:27 437.485
BRITE-PL 22 Dec 20:20:23 20:24:31 70° 259° (WSW) 20:28:40 437.365/2234.400
COMPASS 1 22 Dec 20:22:50 20:27:03 81° 77° (ENE) 20:31:19 437.405
HO-68 22 Dec 20:23:30 20:30:40 71° 256° (WSW) 20:37:51 435.675
CUBEBUG 2 22 Dec 20:24:36 20:27:56 23° 67° (ENE) 20:31:19 437.445
ZACube-1 22 Dec 20:25:24 20:28:11 17° 65° (ENE) 20:31:00 437.345
DELFI C3 22 Dec 20:25:26 20:29:02 30° 70° (ENE) 20:32:39 145.870
AIST 2 22 Dec 20:29:31 20:31:18 12° 38° (NE) 20:33:04 435.215
SEEDS 22 Dec 20:31:44 20:35:57 67° 259° (W) 20:40:13 437.485
GOMX 1 22 Dec 20:34:48 20:38:55 69° 259° (WSW) 20:43:06 467.674
VELOX 1 22 Dec 20:36:11 20:38:25 14° 63° (ENE) 20:40:39 145.980
CUTE 1.7 + AOD 2 22 Dec 20:38:33 20:42:40 48° 261° (W) 20:46:50 437.475
DANDE 22 Dec 20:44:30 20:52:22 69° 265° (W) 21:00:59 436.750
RS-15 22 Dec 20:48:58 21:00:16 80° 241° (WSW) 21:12:05 29.354- 29.394
DOVE 4 22 Dec 20:48:59 20:53:05 66° 259° (W) 20:57:19 437.250
BEESAT 2 22 Dec 20:49:45 20:53:29 30° 49° (NE) 20:57:10 435.950
FUNcube-1 22 Dec 20:50:17 20:53:59 31° 70° (ENE) 20:57:46 145.935
CINEMA 3 22 Dec 20:56:22 21:00:32 85° 76° (ENE) 21:04:51 145.822/145.860
UWE-3 22 Dec 20:56:54 21:00:53 44° 72° (ENE) 21:04:59 435.000/436.395/437.385
PCSat 22 Dec 20:58:20 21:02:13 20° 44° (NE) 21:06:05 145.827
DX 1 22 Dec 21:04:43 21:09:04 82° 76° (ENE) 21:13:25 434.975-435.025
HUMSAT D 22 Dec 21:06:41 21:10:12 27° 69° (ENE) 21:13:46 437.325/437.525
CUBEBUG 1 22 Dec 21:17:44 21:20:01 14° 63° (ENE) 21:22:18 437.445
AISAT 22 Dec 21:18:37 21:22:41 38° 70° (ENE) 21:26:47 437.250
AAUSAT CUBESAT 2 22 Dec 21:22:13 21:25:41 25° 265° (W) 21:29:11 437.432
Oscar 11 22 Dec 21:23:11 21:27:22 48° 261° (W) 21:31:36 145.826/435.025
SO-50 22 Dec 21:24:05 21:28:14 34° 311° (NW) 21:32:32 436.795
CUSAT 1 22 Dec 21:24:51 21:31:48 34° 272° (W) 21:39:09 437.405
UKube-1 22 Dec 21:33:18 21:37:30 49° 260° (W) 21:41:42 .
ANTELSAT 22 Dec 21:35:43 21:38:18 14° 91° (E) 21:40:52 437.575/2403.000
BEESAT 3 22 Dec 21:45:26 21:49:35 68° 240° (WSW) 21:53:40 437.485
50 SAT 22 Dec 22:00:00 22:04:01 90° 269° (W) 22:08:06 437.505
ZACube-1 22 Dec 22:00:15 22:04:13 41° 262° (W) 22:08:17 437.345
CUBEBUG 2 22 Dec 22:00:49 22:04:29 29° 264° (W) 22:08:16 437.445
DELFI C3 22 Dec 22:01:09 22:04:19 21° 266° (W) 22:07:30 145.870
TISAT 1 22 Dec 22:05:39 22:06:46 11° 62° (ENE) 22:07:53 437.305
AIST 2 22 Dec 22:06:19 22:10:38 81° 57° (ENE) 22:14:52 435.215
TIGRISAT 22 Dec 22:08:22 22:12:33 31° 96° (E) 22:16:43 435.000
DUCHIFAT 1 22 Dec 22:08:59 22:11:58 18° 93° (E) 22:14:56 145.980
VELOX 1 22 Dec 22:10:08 22:14:30 59° 259° (W) 22:18:52 145.980
YUBILEINY 22 Dec 22:13:39 22:20:04 24° 80° (E) 22:26:27 435.215
SPROUT 22 Dec 22:16:00 22:18:07 14° 63° (ENE) 22:20:14 437.525
HO-68 22 Dec 22:18:05 22:19:32 11° 274° (W) 22:20:59 435.675
ESTCUBE 1 22 Dec 22:21:28 22:25:59 72° 75° (ENE) 22:30:31 437.505/2401.250
QB50P2 22 Dec 22:23:51 22:27:31 27° 96° (E) 22:31:11 145.880/145.840
FUNcube-1 22 Dec 22:27:08 22:30:22 22° 266° (W) 22:33:41 145.935
BEESAT 2 22 Dec 22:28:06 22:31:39 27° 247° (WSW) 22:35:09 435.950
DANDE 22 Dec 22:31:03 22:34:44 14° 280° (W) 22:38:34 436.750
POLYITAN 1 22 Dec 22:33:23 22:37:20 35° 98° (E) 22:41:17 437.675
NANOSAT C BR1 22 Dec 22:33:23 22:37:17 34° 97° (E) 22:41:11 145.865
UWE-3 22 Dec 22:35:12 22:37:41 15° 269° (W) 22:40:13 435.000/436.395/437.385
UNISAT 6 22 Dec 22:38:31 22:43:14 65° 101° (E) 22:47:55 437.425
PCSat 22 Dec 22:40:47 22:46:12 73° 244° (WSW) 22:51:35 145.827
HUMSAT D 22 Dec 22:42:37 22:45:58 24° 265° (W) 22:49:23 437.325/437.525
QB50P1 22 Dec 22:48:04 22:52:14 51° 100° (E) 22:56:23 145.935-145.965
CUBEBUG 1 22 Dec 22:51:38 22:55:55 56° 259° (W) 23:00:13 437.445
AISAT 22 Dec 22:56:16 22:59:26 19° 266° (W) 23:02:37 437.250
RS-15 22 Dec 23:03:51 23:10:53 19° 261° (W) 23:18:07 29.354- 29.394
ANTELSAT 22 Dec 23:10:47 23:15:26 59° 287° (WNW) 23:20:04 437.575/2403.000
POPSAT HIP 1 22 Dec 23:17:03 23:21:19 75° 285° (WNW) 23:25:35 437.405
BUGSAT 1 22 Dec 23:30:33 23:34:34 64° 285° (WNW) 23:38:37 437.445
TISAT 1 22 Dec 23:37:50 23:42:00 70° 258° (WSW) 23:46:13 437.305
DUCHIFAT 1 22 Dec 23:44:00 23:47:56 37° 289° (WNW) 23:51:52 145.980
TIGRISAT 22 Dec 23:45:12 23:49:11 28° 292° (WNW) 23:53:10 435.000
SPROUT 22 Dec 23:49:32 23:53:43 56° 260° (W) 23:57:57 437.525
AUBIESAT-1 22 Dec 23:50:56 23:53:55 16° 58° (ENE) 23:56:53 437.475
SWISSCUBE 22 Dec 23:57:35 00:01:48 32° 68° (ENE) 00:06:02 437.505
ITUPSAT 1 22 Dec 23:59:13 00:03:22 30° 68° (ENE) 00:07:32 437.325
QB50P2 22 Dec 23:59:49 00:03:20 26° 292° (WNW) 00:06:52 145.880/145.840
ESTCUBE 1 23 Dec 00:02:20 00:03:20 11° 271° (W) 00:04:20 437.505/2401.250
YUBILEINY 23 Dec 00:07:14 00:15:57 73° 280° (W) 00:24:40 435.215
O/OREOS (USA 219) 23 Dec 00:08:28 00:12:54 78° 110° (ESE) 00:17:22 437.305
NANOSAT C BR1 23 Dec 00:09:46 00:12:56 21° 293° (WNW) 00:16:07 145.865
POLYITAN 1 23 Dec 00:09:51 00:13:03 21° 293° (WNW) 00:16:14 437.675
UNISAT 6 23 Dec 00:16:57 00:19:28 15° 298° (WNW) 00:21:59 437.425
M-CUBED/EXP-1 PRIME 23 Dec 00:16:59 00:21:12 30° 63° (ENE) 00:25:28 437.505
Oscar 19 23 Dec 00:21:20 00:23:55 14° 90° (E) 00:26:29 437.125/150
BEESAT 23 Dec 00:21:34 00:26:11 51° 72° (ENE) 00:30:49 436.000
QB50P1 23 Dec 00:25:18 00:27:42 15° 296° (WNW) 00:30:05 145.935-145.965
KKS-1 23 Dec 00:45:15 00:48:14 18° 65° (ENE) 00:51:13 437.445
AUBIESAT-1 23 Dec 01:23:28 01:28:17 69° 254° (WSW) 01:33:10 437.475
VERMONT LUNAR 23 Dec 01:24:02 01:26:45 21° 152° (SSE) 01:29:28 437.305
SWISSCUBE 23 Dec 01:35:34 01:39:38 27° 264° (W) 01:43:44 437.505
ITUPSAT 1 23 Dec 01:37:02 01:41:12 29° 264° (W) 01:45:23 437.325
PHONESAT 2.4 23 Dec 01:50:33 01:53:23 22° 152° (SSE) 01:56:14 2401.200-2431.200
O/OREOS (USA 219) 23 Dec 01:51:07 01:52:53 12° 309° (NW) 01:54:40 437.305
M-CUBED/EXP-1 PRIME 23 Dec 01:51:41 01:56:03 33° 259° (W) 02:00:30 437.505
Oscar 19 23 Dec 01:58:33 02:03:45 71° 286° (WNW) 02:08:54 437.125/150
BEESAT 23 Dec 02:01:12 02:04:18 17° 268° (W) 02:07:24 436.000
HORYU 2 23 Dec 02:09:52 02:10:56 11° 90° (E) 02:12:00 437.375
YUBILEINY 23 Dec 02:10:08 02:14:28 14° 302° (WNW) 02:18:50 435.215
STARS 23 Dec 02:10:35 02:14:57 85° 257° (WSW) 02:19:23 437.465
ITAMSAT 1 23 Dec 02:20:08 02:25:19 69° 102° (ESE) 02:30:27 435.822/435.867
KKS-1 23 Dec 02:20:19 02:24:32 44° 261° (W) 02:28:47 437.445
Gurwin Techsat 1B 23 Dec 02:30:43 02:35:56 54° 100° (E) 02:41:06 435.225
AIST 1 23 Dec 02:41:28 02:45:21 33° 76° (ENE) 02:49:12
VERMONT LUNAR 23 Dec 03:01:12 03:04:42 63° 167° (SSE) 03:08:11 437.305
PHONESAT 2.4 23 Dec 03:28:07 03:31:43 64° 167° (SSE) 03:35:18 2401.200-2431.200
AO-7 23 Dec 03:38:36 03:46:19 39° 98° (E) 03:53:56 29.400- 29.500
HORYU 2 23 Dec 03:43:33 03:48:05 71° 286° (WNW) 03:52:33 437.375
MOZHAYETS 4 23 Dec 03:48:34 03:53:02 49° 72° (ENE) 03:57:32
ITAMSAT 1 23 Dec 04:01:11 04:04:13 16° 299° (WNW) 04:07:14 435.822/435.867
GONETS M04 23 Dec 04:08:04 04:15:14 29° 82° (E) 04:22:23
Gurwin Techsat 1B 23 Dec 04:11:40 04:15:28 20° 297° (WNW) 04:19:16 435.225
JAS-2 23 Dec 04:13:51 04:18:01 22° 92° (E) 04:21:59 435.910
SO-50 23 Dec 04:14:57 04:19:16 30° 47° (NE) 04:23:35 436.795
AIST 1 23 Dec 04:19:45 04:22:44 19° 273° (W) 04:25:43
VERMONT LUNAR 23 Dec 04:39:25 04:42:57 81° 184° (S) 04:46:29 437.305
STRAND 1 23 Dec 04:59:39 05:03:24 21° 64° (ENE) 05:07:10 437.568
PHONESAT 2.4 23 Dec 05:06:43 05:10:21 81° 184° (S) 05:13:59 2401.200-2431.200
PRISM 23 Dec 05:08:33 05:12:39 52° 73° (ENE) 05:16:46 437.425
CUBESAT XI-V 23 Dec 05:19:51 05:24:00 33° 70° (ENE) 05:28:10 437.345
MOZHAYETS 4 23 Dec 05:27:34 05:30:31 17° 269° (W) 05:33:29
AO-7 23 Dec 05:31:16 05:39:11 49° 297° (WNW) 05:47:04 29.400- 29.500
Cubesat XI-IV 23 Dec 05:37:17 05:41:45 27° 95° (E) 05:46:12 437.490
